Location: Newport
(44.6370°N, 124.0520°W)
Time: 11:36:03
(UTC-08:00)

N. Korean satellite - Pass Details

Date: 09 October 2017
Orbit: 461 x 513 km, 97.2° (Epoch: 11 December)

Event Time Altitude Azimuth Distance (km) Brightness Sun altitude
Rises 19:58:19 0° 194° (SSW) 2,567 10.4 -14.5°
Reaches altitude 10° 20:00:39 10° 207° (SSW) 1,680 9.6 -14.9°
Maximum altitude 20:03:41 25° 264° (W) 1,017 9.1 -15.4°
Drops below altitude 10° 20:06:42 10° 322° (NW) 1,666 9.9 -16.0°
Sets 20:09:01 0° 336° (NNW) 2,541 10.7 -16.4°
